| time (UTC) | temp C | wind direction | speed KPH | gust KPH | rain 1hr cm | rain 24hr cm | rain mn cm | humidity % | barometer mb |
| 20260906115526 | 21 | 17 | 0.0 | 0.0 | 0.00 | 0.00 | 0.00 | 100 | 1014.1 |
| 20260906115024 | 21 | 17 | 0.0 | 0.0 | 0.00 | 0.00 | 0.00 | 100 | 1014.0 |
| 20260906114528 | 21 | 17 | 0.0 | 0.0 | 0.00 | 0.00 | 0.00 | 100 | 1013.8 |
| 20260906114022 | 21 | 17 | 0.0 | 4.8 | 0.00 | 0.00 | 0.00 | 100 | 1013.7 |
| 20260906113521 | 21 | 17 | 1.6 | 6.4 | 0.00 | 0.00 | 0.00 | 100 | 1013.5 |
| 20260906113020 | 21 | 17 | 1.6 | 6.4 | 0.00 | 0.00 | 0.00 | 100 | 1013.4 |
| 20260906112518 | 21 | 18 | 0.0 | 3.2 | 0.00 | 0.00 | 0.00 | 100 | 1013.3 |
| 20260906112018 | 21 | 18 | 0.0 | 3.2 | 0.00 | 0.00 | 0.00 | 100 | 1013.2 |
| 20260906111519 | 21 | 18 | 0.0 | 4.8 | 0.00 | 0.00 | 0.00 | 100 | 1013.3 |
| 20260906111017 | 21 | 18 | 1.6 | 4.8 | 0.00 | 0.00 | 0.00 | 100 | 1013.2 |
| 20260906110517 | 21 | 18 | 0.0 | 0.0 | 0.00 | 0.00 | 0.00 | 100 | 1013.0 |
| 20260906110015 | 21 | 18 | 0.0 | 0.0 | 0.00 | 0.00 | 0.00 | 100 | 1013.1 |
| 20260906105515 | 21 | 18 | 0.0 | 0.0 | 0.00 | 0.00 | 0.00 | 100 | 1013.0 |
| 20260906105015 | 21 | 18 | 0.0 | 0.0 | 0.00 | 0.00 | 0.00 | 100 | 1012.9 |
| 20260906104515 | 21 | 18 | 0.0 | 0.0 | 0.00 | 0.00 | 0.00 | 100 | 1012.9 |
| 20260906104014 | 21 | 18 | 0.0 | 0.0 | 0.00 | 0.00 | 0.00 | 100 | 1012.8 |
| 20260906103517 | 21 | 18 | 0.0 | 0.0 | 0.00 | 0.00 | 0.00 | 100 | 1012.7 |
| 20260906103013 | 21 | 18 | 0.0 | 0.0 | 0.00 | 0.00 | 0.00 | 100 | 1012.7 |
| 20260906102516 | 21 | 18 | 0.0 | 0.0 | 0.00 | 0.00 | 0.00 | 100 | 1012.8 |
| 20260906102018 | 21 | 18 | 0.0 | 0.0 | 0.00 | 0.00 | 0.00 | 100 | 1012.7 |
| 20260906101513 | 21 | 18 | 0.0 | 0.0 | 0.00 | 0.00 | 0.00 | 100 | 1012.7 |
| 20260906101012 | 21 | 18 | 0.0 | 3.2 | 0.00 | 0.00 | 0.00 | 100 | 1012.5 |
| 20260906100515 | 21 | 18 | 0.0 | 3.2 | 0.00 | 0.00 | 0.00 | 100 | 1012.5 |
| 20260906100012 | 21 | 18 | 0.0 | 0.0 | 0.00 | 0.00 | 0.00 | 100 | 1012.5 |
| 20260906095511 | 21 | 18 | 0.0 | 0.0 | 0.00 | 0.00 | 0.00 | 100 | 1012.5 |
| 20260906095012 | 21 | 18 | 0.0 | 0.0 | 0.00 | 0.00 | 0.00 | 100 | 1012.5 |
| 20260906094511 | 21 | 18 | 0.0 | 0.0 | 0.00 | 0.00 | 0.00 | 100 | 1012.4 |
| 20260906094010 | 21 | 18 | 0.0 | 0.0 | 0.00 | 0.00 | 0.00 | 100 | 1012.4 |
| 20260906093510 | 21 | 18 | 0.0 | 0.0 | 0.00 | 0.00 | 0.00 | 100 | 1012.4 |
| 20260906093015 | 21 | 18 | 0.0 | 0.0 | 0.00 | 0.00 | 0.00 | 100 | 1012.3 |
| 20260906092508 | 21 | 18 | 0.0 | 0.0 | 0.00 | 0.00 | 0.00 | 100 | 1012.3 |
| 20260906092012 | 21 | 18 | 0.0 | 0.0 | 0.00 | 0.00 | 0.00 | 100 | 1012.3 |
| 20260906091507 | 22 | 18 | 0.0 | 0.0 | 0.00 | 0.00 | 0.00 | 100 | 1012.3 |
| 20260906091007 | 22 | 18 | 0.0 | 0.0 | 0.00 | 0.00 | 0.00 | 100 | 1012.3 |
| 20260906090507 | 22 | 18 | 0.0 | 0.0 | 0.00 | 0.00 | 0.00 | 100 | 1012.4 |
| 20260906090007 | 22 | 18 | 0.0 | 0.0 | 0.00 | 0.00 | 0.00 | 100 | 1012.5 |
| 20260906085506 | 22 | 18 | 0.0 | 0.0 | 0.00 | 0.00 | 0.00 | 100 | 1012.4 |
| 20260906085005 | 22 | 18 | 0.0 | 0.0 | 0.00 | 0.00 | 0.00 | 100 | 1012.5 |
| 20260906084505 | 22 | 18 | 0.0 | 0.0 | 0.00 | 0.00 | 0.00 | 100 | 1012.5 |
| 20260906084004 | 22 | 18 | 0.0 | 0.0 | 0.00 | 0.00 | 0.00 | 100 | 1012.5 |
| 20260906083504 | 22 | 18 | 0.0 | 1.6 | 0.00 | 0.00 | 0.00 | 100 | 1012.5 |
| 20260906083005 | 22 | 18 | 0.0 | 1.6 | 0.00 | 0.00 | 0.00 | 100 | 1012.4 |
| 20260906082504 | 22 | 18 | 0.0 | 1.6 | 0.00 | 0.00 | 0.00 | 100 | 1012.4 |
| 20260906082003 | 22 | 18 | 0.0 | 1.6 | 0.00 | 0.00 | 0.00 | 100 | 1012.3 |
| 20260906081502 | 22 | 18 | 0.0 | 3.2 | 0.00 | 0.00 | 0.00 | 100 | 1012.3 |
| 20260906081001 | 22 | 18 | 0.0 | 0.0 | 0.00 | 0.00 | 0.00 | 100 | 1012.2 |
| 20260906080502 | 22 | 18 | 0.0 | 0.0 | 0.00 | 0.00 | 0.00 | 100 | 1012.2 |
| 20260906080000 | 22 | 18 | 0.0 | 0.0 | 0.00 | 0.00 | 0.00 | 100 | 1012.3 |
| 20260906075501 | 22 | 18 | 0.0 | 0.0 | 0.00 | 0.00 | 0.00 | 100 | 1012.4 |
| 20260906075102 | 22 | 18 | 0.0 | 0.0 | 0.00 | 0.00 | 0.00 | 100 | 1012.3 |
| 20260906074610 | 22 | 18 | 0.0 | 0.0 | 0.00 | 0.00 | 0.00 | 100 | 1012.3 |
| 20260906074058 | 22 | 18 | 0.0 | 1.6 | 0.00 | 0.00 | 0.00 | 100 | 1012.4 |
| 20260906073600 | 23 | 18 | 0.0 | 3.2 | 0.00 | 0.00 | 0.00 | 100 | 1012.4 |
| 20260906073107 | 23 | 18 | 1.6 | 3.2 | 0.00 | 0.00 | 0.00 | 100 | 1012.5 |
| 20260906072557 | 23 | 18 | 0.0 | 1.6 | 0.00 | 0.00 | 0.00 | 100 | 1012.4 |
| 20260906072059 | 23 | 18 | 0.0 | 3.2 | 0.00 | 0.00 | 0.00 | 100 | 1012.5 |
| 20260906071557 | 23 | 18 | 0.0 | 3.2 | 0.00 | 0.00 | 0.00 | 100 | 1012.4 |
| 20260906071056 | 23 | 18 | 0.0 | 3.2 | 0.00 | 0.00 | 0.00 | 100 | 1012.5 |
| 20260906070556 | 23 | 18 | 0.0 | 0.0 | 0.00 | 0.00 | 0.00 | 99 | 1012.4 |
| 20260906070115 | 23 | 18 | 0.0 | 0.0 | 0.00 | 0.00 | 0.00 | 99 | 1012.4 |
| 20260906065557 | 23 | 18 | 0.0 | 1.6 | 0.00 | 0.00 | 0.00 | 99 | 1012.4 |
| 20260906065155 | 23 | 18 | 0.0 | 1.6 | 0.00 | 0.00 | 0.00 | 99 | 1012.4 |
| 20260906064554 | 23 | 18 | 0.0 | 3.2 | 0.00 | 0.00 | 0.00 | 98 | 1012.2 |
| 20260906064053 | 23 | 18 | 0.0 | 3.2 | 0.00 | 0.00 | 0.00 | 99 | 1012.3 |
| 20260906063551 | 23 | 18 | 0.0 | 3.2 | 0.00 | 0.00 | 0.00 | 99 | 1012.4 |
| 20260906063052 | 23 | 18 | 0.0 | 3.2 | 0.00 | 0.00 | 0.00 | 98 | 1012.5 |
| 20260906062550 | 23 | 18 | 0.0 | 3.2 | 0.00 | 0.00 | 0.00 | 98 | 1012.4 |
| 20260906062051 | 23 | 18 | 1.6 | 4.8 | 0.00 | 0.00 | 0.00 | 98 | 1012.5 |
| 20260906061604 | 23 | 18 | 1.6 | 4.8 | 0.00 | 0.00 | 0.00 | 98 | 1012.6 |
| 20260906061049 | 23 | 18 | 0.0 | 0.0 | 0.00 | 0.00 | 0.00 | 98 | 1012.5 |
| 20260906060553 | 23 | 18 | 0.0 | 3.2 | 0.00 | 0.00 | 0.00 | 98 | 1012.6 |
| 20260906060048 | 23 | 18 | 1.6 | 4.8 | 0.00 | 0.00 | 0.00 | 98 | 1012.6 |
| 20260906055548 | 23 | 18 | 3.2 | 4.8 | 0.00 | 0.00 | 0.00 | 99 | 1012.5 |
| 20260906055048 | 23 | 18 | 0.0 | 0.0 | 0.00 | 0.00 | 0.00 | 98 | 1012.6 |
| 20260906054547 | 23 | 18 | 0.0 | 1.6 | 0.00 | 0.00 | 0.00 | 98 | 1012.6 |
| 20260906054046 | 23 | 18 | 0.0 | 4.8 | 0.00 | 0.00 | 0.00 | 98 | 1012.7 |
| 20260906053545 | 23 | 18 | 1.6 | 4.8 | 0.00 | 0.00 | 0.00 | 97 | 1012.7 |
| 20260906053050 | 24 | 19 | 1.6 | 4.8 | 0.00 | 0.00 | 0.00 | 97 | 1012.7 |
| 20260906052544 | 24 | 19 | 0.0 | 1.6 | 0.00 | 0.00 | 0.00 | 96 | 1012.7 |
| 20260906052043 | 24 | 19 | 0.0 | 1.6 | 0.00 | 0.00 | 0.00 | 96 | 1012.6 |
| 20260906051542 | 25 | 19 | 0.0 | 3.2 | 0.00 | 0.00 | 0.00 | 96 | 1012.7 |
| 20260906051041 | 25 | 19 | 0.0 | 3.2 | 0.00 | 0.00 | 0.00 | 96 | 1012.8 |
| 20260906050540 | 25 | 19 | 0.0 | 1.6 | 0.00 | 0.00 | 0.00 | 96 | 1012.9 |
| 20260906050057 | 25 | 19 | 0.0 | 4.8 | 0.00 | 0.00 | 0.00 | 96 | 1012.9 |
| 20260906045540 | 25 | 19 | 0.0 | 4.8 | 0.00 | 0.00 | 0.00 | 95 | 1012.8 |
| 20260906045039 | 25 | 19 | 1.6 | 4.8 | 0.00 | 0.00 | 0.00 | 95 | 1012.8 |
| 20260906044539 | 25 | 19 | 1.6 | 4.8 | 0.00 | 0.00 | 0.00 | 95 | 1012.8 |
| 20260906044039 | 25 | 19 | 3.2 | 4.8 | 0.00 | 0.00 | 0.00 | 96 | 1012.9 |
| 20260906043539 | 25 | 19 | 0.0 | 4.8 | 0.00 | 0.00 | 0.00 | 96 | 1012.8 |
| 20260906043047 | 25 | 19 | 1.6 | 4.8 | 0.00 | 0.00 | 0.00 | 96 | 1012.8 |
| 20260906042538 | 25 | 19 | 1.6 | 4.8 | 0.00 | 0.00 | 0.00 | 96 | 1012.8 |
| 20260906042038 | 25 | 19 | 1.6 | 4.8 | 0.00 | 0.00 | 0.00 | 96 | 1012.9 |
| 20260906041538 | 25 | 19 | 1.6 | 3.2 | 0.00 | 0.00 | 0.00 | 96 | 1012.8 |
| 20260906041038 | 25 | 19 | 0.0 | 6.4 | 0.00 | 0.00 | 0.00 | 96 | 1012.9 |
| 20260906040537 | 25 | 19 | 1.6 | 6.4 | 0.00 | 0.00 | 0.00 | 96 | 1012.9 |
| 20260906040048 | 25 | 19 | 1.6 | 3.2 | 0.00 | 0.00 | 0.00 | 96 | 1012.7 |
| 20260906035539 | 25 | 19 | 0.0 | 1.6 | 0.00 | 0.00 | 0.00 | 96 | 1012.7 |
| 20260906035038 | 25 | 19 | 0.0 | 0.0 | 0.00 | 0.00 | 0.00 | 96 | 1012.7 |
| 20260906034537 | 25 | 19 | 0.0 | 0.0 | 0.00 | 0.00 | 0.00 | 95 | 1012.6 |
| 20260906034036 | 25 | 19 | 0.0 | 0.0 | 0.00 | 0.00 | 0.00 | 95 | 1012.6 |
| 20260906033537 | 26 | 19 | 0.0 | 0.0 | 0.00 | 0.00 | 0.00 | 95 | 1012.5 |
| 20260906033038 | 26 | 19 | 0.0 | 0.0 | 0.00 | 0.00 | 0.00 | 95 | 1012.5 |
| 20260906032539 | 26 | 19 | 0.0 | 0.0 | 0.00 | 0.00 | 0.00 | 95 | 1012.4 |
| 20260906032036 | 26 | 19 | 0.0 | 0.0 | 0.00 | 0.00 | 0.00 | 95 | 1012.5 |
| 20260906031536 | 26 | 19 | 0.0 | 0.0 | 0.00 | 0.00 | 0.00 | 94 | 1012.5 |
| 20260906031035 | 26 | 19 | 0.0 | 0.0 | 0.00 | 0.00 | 0.00 | 94 | 1012.4 |
| 20260906030536 | 26 | 19 | 0.0 | 0.0 | 0.00 | 0.00 | 0.00 | 94 | 1012.2 |
| 20260906030037 | 26 | 19 | 0.0 | 1.6 | 0.00 | 0.00 | 0.00 | 94 | 1012.3 |
| 20260906025537 | 26 | 19 | 0.0 | 4.8 | 0.00 | 0.00 | 0.00 | 94 | 1012.2 |
| 20260906025036 | 26 | 19 | 0.0 | 9.7 | 0.00 | 0.00 | 0.00 | 94 | 1012.0 |
| 20260906024536 | 26 | 19 | 4.8 | 9.7 | 0.00 | 0.00 | 0.00 | 94 | 1012.1 |
| 20260906024034 | 26 | 290 | 1.6 | 3.2 | 0.00 | 0.00 | 0.00 | 95 | 1012.0 |
| 20260906023536 | 26 | 290 | 1.6 | 3.2 | 0.00 | 0.00 | 0.00 | 94 | 1011.9 |
| 20260906023044 | 26 | 290 | 1.6 | 3.2 | 0.00 | 0.00 | 0.00 | 94 | 1011.8 |
| 20260906022535 | 27 | 290 | 0.0 | 3.2 | 0.00 | 0.00 | 0.00 | 94 | 1011.5 |
| 20260906022035 | 27 | 290 | 0.0 | 3.2 | 0.00 | 0.00 | 0.00 | 93 | 1011.6 |
| 20260906021534 | 27 | 290 | 1.6 | 3.2 | 0.00 | 0.00 | 0.00 | 93 | 1011.4 |
| 20260906021034 | 27 | 290 | 0.0 | 0.0 | 0.00 | 0.00 | 0.00 | 92 | 1011.3 |
| 20260906020533 | 27 | 290 | 0.0 | 0.0 | 0.00 | 0.00 | 0.00 | 91 | 1011.3 |
| 20260906020033 | 27 | 290 | 0.0 | 0.0 | 0.00 | 0.00 | 0.00 | 91 | 1011.3 |
| 20260906015532 | 27 | 290 | 0.0 | 0.0 | 0.00 | 0.00 | 0.00 | 89 | 1011.3 |
| 20260906015033 | 28 | 290 | 0.0 | 0.0 | 0.00 | 0.00 | 0.00 | 89 | 1011.3 |
| 20260906014632 | 28 | 290 | 0.0 | 0.0 | 0.00 | 0.00 | 0.00 | 89 | 1011.3 |
| 20260906014032 | 28 | 290 | 0.0 | 0.0 | 0.00 | 0.00 | 0.00 | 88 | 1011.3 |
| 20260906013532 | 28 | 290 | 0.0 | 0.0 | 0.00 | 0.00 | 0.00 | 87 | 1011.2 |
| 20260906013033 | 28 | 290 | 0.0 | 0.0 | 0.00 | 0.00 | 0.00 | 86 | 1011.2 |
| 20260906012532 | 29 | 290 | 0.0 | 0.0 | 0.00 | 0.00 | 0.00 | 85 | 1011.2 |
| 20260906012032 | 29 | 290 | 0.0 | 0.0 | 0.00 | 0.00 | 0.00 | 84 | 1011.3 |
| 20260906011535 | 30 | 290 | 0.0 | 0.0 | 0.00 | 0.00 | 0.00 | 83 | 1011.3 |
| 20260906011030 | 30 | 290 | 0.0 | 0.0 | 0.00 | 0.00 | 0.00 | 82 | 1011.4 |
| 20260906010532 | 30 | 290 | 0.0 | 1.6 | 0.00 | 0.00 | 0.00 | 81 | 1011.3 |
| 20260906010031 | 30 | 290 | 0.0 | 1.6 | 0.00 | 0.00 | 0.00 | 80 | 1011.3 |
| 20260906005532 | 31 | 290 | 0.0 | 0.0 | 0.00 | 0.00 | 0.00 | 80 | 1011.3 |
| 20260906005030 | 31 | 290 | 0.0 | 1.6 | 0.00 | 0.00 | 0.00 | 79 | 1011.2 |
| 20260906004530 | 31 | 290 | 0.0 | 3.2 | 0.00 | 0.00 | 0.00 | 79 | 1011.2 |
| 20260906004031 | 31 | 290 | 0.0 | 4.8 | 0.00 | 0.00 | 0.00 | 78 | 1011.3 |
| 20260906003532 | 31 | 290 | 1.6 | 4.8 | 0.00 | 0.00 | 0.00 | 77 | 1011.1 |
| 20260906003030 | 32 | 289 | 1.6 | 4.8 | 0.00 | 0.00 | 0.00 | 76 | 1011.1 |
| 20260906002531 | 32 | 289 | 1.6 | 3.2 | 0.00 | 0.00 | 0.00 | 75 | 1011.2 |
| 20260906002031 | 32 | 289 | 0.0 | 4.8 | 0.00 | 0.00 | 0.00 | 73 | 1011.2 |
| 20260906001528 | 33 | 289 | 1.6 | 6.4 | 0.00 | 0.00 | 0.00 | 73 | 1011.3 |
| 20260906001029 | 33 | 289 | 1.6 | 6.4 | 0.00 | 0.00 | 0.00 | 71 | 1011.3 |
| 20260906000529 | 33 | 289 | 3.2 | 11.3 | 0.00 | 0.00 | 0.00 | 71 | 1011.4 |
| 20260906000030 | 33 | 285 | 4.8 | 11.3 | 0.00 | 0.00 | 0.00 | 70 | 1011.4 |
| 20260905235532 | 33 | 257 | 6.4 | 12.9 | 0.00 | 0.00 | 0.00 | 69 | 1011.4 |
| 20260905235029 | 33 | 261 | 4.8 | 14.5 | 0.00 | 0.00 | 0.00 | 69 | 1011.3 |
| 20260905234529 | 34 | 300 | 6.4 | 17.7 | 0.00 | 0.00 | 0.00 | 68 | 1011.1 |
| 20260905234028 | 34 | 271 | 8.0 | 17.7 | 0.00 | 0.00 | 0.00 | 68 | 1011.2 |
| 20260905233528 | 34 | 273 | 8.0 | 14.5 | 0.00 | 0.00 | 0.00 | 67 | 1011.3 |
| 20260905233027 | 35 | 252 | 3.2 | 12.9 | 0.00 | 0.00 | 0.00 | 67 | 1011.2 |
| 20260905232527 | 35 | 249 | 6.4 | 12.9 | 0.00 | 0.00 | 0.00 | 66 | 1011.2 |
| 20260905232026 | 35 | 259 | 4.8 | 16.1 | 0.00 | 0.00 | 0.00 | 65 | 1011.1 |
| 20260905231527 | 35 | 264 | 9.7 | 17.7 | 0.00 | 0.00 | 0.00 | 64 | 1011.2 |
| 20260905231026 | 36 | 251 | 9.7 | 17.7 | 0.00 | 0.00 | 0.00 | 63 | 1011.3 |
| 20260905230526 | 36 | 230 | 8.0 | 16.1 | 0.00 | 0.00 | 0.00 | 62 | 1011.3 |
| 20260905230025 | 36 | 252 | 9.7 | 14.5 | 0.00 | 0.00 | 0.00 | 62 | 1011.2 |
| 20260905225525 | 36 | 273 | 3.2 | 6.4 | 0.00 | 0.00 | 0.00 | 61 | 1011.1 |
| 20260905225023 | 36 | 348 | 0.0 | 6.4 | 0.00 | 0.00 | 0.00 | 61 | 1011.1 |
| 20260905224526 | 36 | 350 | 1.6 | 6.4 | 0.00 | 0.00 | 0.00 | 61 | 1011.3 |
| 20260905224024 | 36 | 274 | 1.6 | 12.9 | 0.00 | 0.00 | 0.00 | 62 | 1011.3 |
| 20260905223526 | 36 | 276 | 8.0 | 12.9 | 0.00 | 0.00 | 0.00 | 61 | 1011.2 |
| 20260905223031 | 36 | 257 | 4.8 | 6.4 | 0.00 | 0.00 | 0.00 | 60 | 1011.1 |
| 20260905222521 | 36 | 257 | 1.6 | 11.3 | 0.00 | 0.00 | 0.00 | 60 | 1011.2 |
| 20260905222020 | 36 | 257 | 4.8 | 11.3 | 0.00 | 0.00 | 0.00 | 59 | 1011.1 |
| 20260905221521 | 36 | 261 | 4.8 | 12.9 | 0.00 | 0.00 | 0.00 | 58 | 1011.2 |
| 20260905221021 | 36 | 271 | 4.8 | 12.9 | 0.00 | 0.00 | 0.00 | 57 | 1011.0 |
| 20260905220523 | 36 | 258 | 4.8 | 19.3 | 0.00 | 0.00 | 0.00 | 56 | 1011.0 |
| 20260905220019 | 37 | 282 | 11.3 | 20.9 | 0.00 | 0.00 | 0.00 | 55 | 1011.1 |
| 20260905215522 | 37 | 263 | 8.0 | 17.7 | 0.00 | 0.00 | 0.00 | 56 | 1011.1 |
| 20260905215020 | 37 | 268 | 9.7 | 14.5 | 0.00 | 0.00 | 0.00 | 55 | 1011.1 |
| 20260905214517 | 37 | 263 | 9.7 | 19.3 | 0.00 | 0.00 | 0.00 | 56 | 1011.1 |
| 20260905214016 | 37 | 288 | 8.0 | 17.7 | 0.00 | 0.00 | 0.00 | 56 | 1011.1 |
| 20260905213515 | 37 | 291 | 6.4 | 17.7 | 0.00 | 0.00 | 0.00 | 56 | 1011.1 |
| 20260905213014 | 37 | 282 | 9.7 | 17.7 | 0.00 | 0.00 | 0.00 | 56 | 1011.1 |
| 20260905212511 | 37 | 319 | 8.0 | 16.1 | 0.00 | 0.00 | 0.00 | 56 | 1011.1 |
| 20260905212010 | 37 | 280 | 6.4 | 17.7 | 0.00 | 0.00 | 0.00 | 56 | 1011.2 |
| 20260905211507 | 37 | 254 | 9.7 | 19.3 | 0.00 | 0.00 | 0.00 | 57 | 1011.2 |
| 20260905211006 | 37 | 269 | 9.7 | 19.3 | 0.00 | 0.00 | 0.00 | 58 | 1011.2 |
| 20260905210505 | 37 | 12 | 1.6 | 8.0 | 0.00 | 0.00 | 0.00 | 59 | 1011.2 |
| 20260905210004 | 36 | 339 | 4.8 | 14.5 | 0.00 | 0.00 | 0.00 | 57 | 1011.4 |
| 20260905205504 | 36 | 288 | 1.6 | 12.9 | 0.00 | 0.00 | 0.00 | 59 | 1011.4 |
| 20260905205003 | 36 | 282 | 3.2 | 12.9 | 0.00 | 0.00 | 0.00 | 58 | 1011.5 |
| 20260905204503 | 36 | 292 | 4.8 | 11.3 | 0.00 | 0.00 | 0.00 | 59 | 1011.7 |
| 20260905204003 | 36 | 293 | 1.6 | 4.8 | 0.00 | 0.00 | 0.00 | 60 | 1011.6 |
| 20260905203502 | 36 | 293 | 1.6 | 8.0 | 0.00 | 0.00 | 0.00 | 60 | 1011.7 |
| 20260905203001 | 36 | 293 | 3.2 | 11.3 | 0.00 | 0.00 | 0.00 | 60 | 1011.9 |
| 20260905202600 | 36 | 289 | 4.8 | 11.3 | 0.00 | 0.00 | 0.00 | 59 | 1011.9 |
| 20260905202100 | 36 | 279 | 3.2 | 11.3 | 0.00 | 0.00 | 0.00 | 60 | 1011.9 |
| 20260905201559 | 36 | 277 | 4.8 | 11.3 | 0.00 | 0.00 | 0.00 | 59 | 1012.0 |
| 20260905201059 | 37 | 275 | 1.6 | 14.5 | 0.00 | 0.00 | 0.00 | 58 | 1012.0 |
| 20260905200557 | 37 | 254 | 6.4 | 14.5 | 0.00 | 0.00 | 0.00 | 59 | 1012.1 |
| 20260905200059 | 37 | 283 | 3.2 | 16.1 | 0.00 | 0.00 | 0.00 | 58 | 1012.1 |
| 20260905195555 | 37 | 292 | 4.8 | 22.5 | 0.00 | 0.00 | 0.00 | 59 | 1012.2 |
| 20260905195058 | 37 | 269 | 12.9 | 22.5 | 0.00 | 0.00 | 0.00 | 59 | 1012.2 |
| 20260905194554 | 36 | 355 | 8.0 | 20.9 | 0.00 | 0.00 | 0.00 | 59 | 1012.2 |
| 20260905194051 | 36 | 319 | 4.8 | 12.9 | 0.00 | 0.00 | 0.00 | 60 | 1012.2 |
| 20260905193553 | 36 | 317 | 4.8 | 14.5 | 0.00 | 0.00 | 0.00 | 61 | 1012.3 |
| 20260905193050 | 36 | 333 | 4.8 | 14.5 | 0.00 | 0.00 | 0.00 | 60 | 1012.5 |
| 20260905192549 | 36 | 279 | 8.0 | 14.5 | 0.00 | 0.00 | 0.00 | 62 | 1012.6 |
| 20260905192047 | 36 | 321 | 0.0 | 6.4 | 0.00 | 0.00 | 0.00 | 62 | 1012.7 |
| 20260905191547 | 36 | 5 | 1.6 | 6.4 | 0.00 | 0.00 | 0.00 | 63 | 1012.8 |
| 20260905191046 | 36 | 5 | 3.2 | 6.4 | 0.00 | 0.00 | 0.00 | 65 | 1012.8 |
| 20260905190545 | 36 | 360 | 0.0 | 8.0 | 0.00 | 0.00 | 0.00 | 63 | 1012.9 |
| 20260905190052 | 36 | 360 | 3.2 | 9.7 | 0.00 | 0.00 | 0.00 | 63 | 1013.0 |
| 20260905185543 | 36 | 326 | 4.8 | 9.7 | 0.00 | 0.00 | 0.00 | 63 | 1013.0 |
| 20260905185041 | 36 | 338 | 3.2 | 9.7 | 0.00 | 0.00 | 0.00 | 63 | 1013.0 |
| 20260905184553 | 36 | 28 | 4.8 | 14.5 | 0.00 | 0.00 | 0.00 | 64 | 1013.1 |
| 20260905184039 | 36 | 317 | 3.2 | 12.9 | 0.00 | 0.00 | 0.00 | 63 | 1013.2 |
| 20260905183539 | 36 | 5 | 3.2 | 8.0 | 0.00 | 0.00 | 0.00 | 63 | 1013.2 |
| 20260905183043 | 36 | 18 | 4.8 | 11.3 | 0.00 | 0.00 | 0.00 | 63 | 1013.4 |
| 20260905182535 | 36 | 297 | 4.8 | 11.3 | 0.00 | 0.00 | 0.00 | 65 | 1013.5 |
| 20260905182034 | 35 | 316 | 1.6 | 6.4 | 0.00 | 0.00 | 0.00 | 66 | 1013.7 |
| 20260905181533 | 35 | 314 | 3.2 | 8.0 | 0.00 | 0.00 | 0.00 | 67 | 1013.7 |
| 20260905181032 | 35 | 313 | 1.6 | 17.7 | 0.00 | 0.00 | 0.00 | 66 | 1013.6 |
| 20260905180532 | 35 | 342 | 6.4 | 17.7 | 0.00 | 0.00 | 0.00 | 66 | 1013.6 |
| 20260905180030 | 36 | 298 | 4.8 | 11.3 | 0.00 | 0.00 | 0.00 | 63 | 1013.5 |
| 20260905175531 | 36 | 59 | 4.8 | 12.9 | 0.00 | 0.00 | 0.00 | 66 | 1013.7 |
| 20260905175030 | 35 | 360 | 1.6 | 16.1 | 0.00 | 0.00 | 0.00 | 64 | 1013.7 |
| 20260905174527 | 35 | 315 | 4.8 | 16.1 | 0.00 | 0.00 | 0.00 | 64 | 1014.0 |
| 20260905174024 | 35 | 311 | 1.6 | 8.0 | 0.00 | 0.00 | 0.00 | 66 | 1014.0 |
| 20260905173524 | 35 | 311 | 3.2 | 9.7 | 0.00 | 0.00 | 0.00 | 64 | 1014.1 |
| 20260905173022 | 35 | 346 | 4.8 | 9.7 | 0.00 | 0.00 | 0.00 | 65 | 1014.2 |
| 20260905172520 | 35 | 360 | 3.2 | 12.9 | 0.00 | 0.00 | 0.00 | 65 | 1014.3 |
| 20260905172018 | 35 | 21 | 4.8 | 11.3 | 0.00 | 0.00 | 0.00 | 64 | 1014.2 |
| 20260905171517 | 35 | 350 | 3.2 | 12.9 | 0.00 | 0.00 | 0.00 | 64 | 1014.3 |
| 20260905171017 | 35 | 313 | 4.8 | 12.9 | 0.00 | 0.00 | 0.00 | 64 | 1014.3 |
| 20260905170513 | 35 | 339 | 4.8 | 16.1 | 0.00 | 0.00 | 0.00 | 65 | 1014.4 |
| 20260905170012 | 35 | 28 | 9.7 | 16.1 | 0.00 | 0.00 | 0.00 | 65 | 1014.3 |
| 20260905165511 | 35 | 309 | 4.8 | 14.5 | 0.00 | 0.00 | 0.00 | 65 | 1014.4 |
| 20260905165009 | 35 | 360 | 8.0 | 14.5 | 0.00 | 0.00 | 0.00 | 65 | 1014.4 |
| 20260905164508 | 35 | 259 | 1.6 | 11.3 | 0.00 | 0.00 | 0.00 | 68 | 1014.5 |
| 20260905164007 | 34 | 254 | 3.2 | 12.9 | 0.00 | 0.00 | 0.00 | 68 | 1014.5 |
| 20260905163507 | 35 | 311 | 4.8 | 14.5 | 0.00 | 0.00 | 0.00 | 67 | 1014.6 |
| 20260905163009 | 35 | 244 | 6.4 | 16.1 | 0.00 | 0.00 | 0.00 | 67 | 1014.5 |
| 20260905162504 | 35 | 269 | 3.2 | 16.1 | 0.00 | 0.00 | 0.00 | 67 | 1014.5 |
| 20260905162001 | 35 | 22 | 3.2 | 8.0 | 0.00 | 0.00 | 0.00 | 68 | 1014.6 |
| 20260905161600 | 35 | 24 | 4.8 | 14.5 | 0.00 | 0.00 | 0.00 | 67 | 1014.6 |
| 20260905161058 | 35 | 348 | 4.8 | 14.5 | 0.00 | 0.00 | 0.00 | 67 | 1014.7 |
| 20260905160557 | 35 | 284 | 4.8 | 12.9 | 0.00 | 0.00 | 0.00 | 68 | 1014.7 |
| 20260905160106 | 35 | 328 | 3.2 | 12.9 | 0.00 | 0.00 | 0.00 | 70 | 1014.7 |
| 20260905155553 | 34 | 289 | 1.6 | 16.1 | 0.00 | 0.00 | 0.00 | 69 | 1014.7 |
| 20260905155052 | 34 | 292 | 11.3 | 16.1 | 0.00 | 0.00 | 0.00 | 70 | 1014.8 |
| 20260905154551 | 34 | 337 | 4.8 | 12.9 | 0.00 | 0.00 | 0.00 | 71 | 1014.9 |
| 20260905154049 | 34 | 242 | 3.2 | 12.9 | 0.00 | 0.00 | 0.00 | 72 | 1014.9 |
| 20260905153547 | 33 | 254 | 4.8 | 12.9 | 0.00 | 0.00 | 0.00 | 72 | 1015.0 |
| 20260905153056 | 33 | 5 | 4.8 | 11.3 | 0.00 | 0.00 | 0.00 | 72 | 1015.0 |
| 20260905152545 | 33 | 360 | 4.8 | 11.3 | 0.00 | 0.00 | 0.00 | 72 | 1015.0 |
| 20260905152043 | 33 | 291 | 3.2 | 11.3 | 0.00 | 0.00 | 0.00 | 74 | 1015.0 |
| 20260905151543 | 33 | 313 | 4.8 | 11.3 | 0.00 | 0.00 | 0.00 | 75 | 1015.0 |
| 20260905151038 | 33 | 288 | 4.8 | 11.3 | 0.00 | 0.00 | 0.00 | 75 | 1015.1 |
| 20260905150538 | 33 | 290 | 4.8 | 11.3 | 0.00 | 0.00 | 0.00 | 76 | 1015.2 |
| 20260905150037 | 33 | 296 | 3.2 | 11.3 | 0.00 | 0.00 | 0.00 | 77 | 1015.2 |
| 20260905145535 | 32 | 259 | 4.8 | 12.9 | 0.00 | 0.00 | 0.00 | 76 | 1015.2 |
| 20260905145033 | 32 | 278 | 4.8 | 12.9 | 0.00 | 0.00 | 0.00 | 77 | 1015.2 |
| 20260905144532 | 32 | 290 | 8.0 | 12.9 | 0.00 | 0.00 | 0.00 | 77 | 1015.3 |
| 20260905144030 | 32 | 263 | 4.8 | 14.5 | 0.00 | 0.00 | 0.00 | 79 | 1015.2 |
| 20260905143529 | 32 | 263 | 8.0 | 14.5 | 0.00 | 0.00 | 0.00 | 77 | 1015.1 |
| 20260905143032 | 32 | 283 | 9.7 | 14.5 | 0.00 | 0.00 | 0.00 | 78 | 1015.2 |
| 20260905142532 | 31 | 277 | 9.7 | 14.5 | 0.00 | 0.00 | 0.00 | 78 | 1015.2 |
| 20260905142027 | 31 | 291 | 8.0 | 14.5 | 0.00 | 0.00 | 0.00 | 78 | 1015.2 |
| 20260905141526 | 31 | 292 | 8.0 | 14.5 | 0.00 | 0.00 | 0.00 | 80 | 1015.2 |
| 20260905141024 | 31 | 327 | 9.7 | 14.5 | 0.00 | 0.00 | 0.00 | 82 | 1015.2 |
| 20260905140522 | 31 | 175 | 1.6 | 4.8 | 0.00 | 0.00 | 0.00 | 85 | 1015.2 |
| 20260905140021 | 30 | 173 | 0.0 | 3.2 | 0.00 | 0.00 | 0.00 | 87 | 1015.2 |
| 20260905135520 | 30 | 173 | 0.0 | 3.2 | 0.00 | 0.00 | 0.00 | 89 | 1015.1 |
| 20260905135019 | 30 | 173 | 0.0 | 0.0 | 0.00 | 0.00 | 0.00 | 91 | 1015.3 |
| 20260905134522 | 29 | 173 | 0.0 | 3.2 | 0.00 | 0.00 | 0.00 | 92 | 1015.2 |
| 20260905134015 | 28 | 173 | 0.0 | 3.2 | 0.00 | 0.00 | 0.00 | 93 | 1015.2 |
| 20260905133513 | 28 | 173 | 0.0 | 1.6 | 0.00 | 0.00 | 0.00 | 94 | 1015.3 |
| 20260905133018 | 27 | 173 | 0.0 | 1.6 | 0.00 | 0.00 | 0.00 | 95 | 1015.3 |
| 20260905132511 | 27 | 173 | 0.0 | 3.2 | 0.00 | 0.00 | 0.00 | 96 | 1015.2 |
| 20260905132009 | 27 | 173 | 0.0 | 3.2 | 0.00 | 0.00 | 0.00 | 97 | 1015.3 |
| 20260905131514 | 26 | 173 | 0.0 | 4.8 | 0.00 | 0.00 | 0.00 | 99 | 1015.3 |
| 20260905131009 | 26 | 173 | 1.6 | 4.8 | 0.00 | 0.00 | 0.00 | 99 | 1015.2 |
| 20260905130504 | 26 | 173 | 1.6 | 3.2 | 0.00 | 0.00 | 0.00 | 100 | 1015.3 |
| 20260905130011 | 25 | 173 | 0.0 | 1.6 | 0.00 | 0.00 | 0.00 | 100 | 1015.3 |
| 20260905125502 | 25 | 173 | 0.0 | 0.0 | 0.00 | 0.00 | 0.00 | 100 | 1015.3 |
| 20260905125001 | 24 | 173 | 0.0 | 0.0 | 0.00 | 0.00 | 0.00 | 100 | 1015.3 |
| 20260905124600 | 24 | 173 | 0.0 | 0.0 | 0.00 | 0.00 | 0.00 | 100 | 1015.3 |
| 20260905124058 | 23 | 173 | 0.0 | 1.6 | 0.00 | 0.00 | 0.00 | 100 | 1015.4 |
| 20260905123558 | 23 | 173 | 0.0 | 1.6 | 0.00 | 0.00 | 0.00 | 100 | 1015.3 |
| 20260905123059 | 22 | 173 | 0.0 | 0.0 | 0.00 | 0.00 | 0.00 | 100 | 1015.3 |
| 20260905122557 | 22 | 173 | 0.0 | 0.0 | 0.00 | 0.00 | 0.00 | 100 | 1015.2 |
| 20260905122057 | 22 | 173 | 0.0 | 0.0 | 0.00 | 0.00 | 0.00 | 100 | 1015.2 |
| 20260905121556 | 22 | 173 | 0.0 | 1.6 | 0.00 | 0.00 | 0.00 | 100 | 1015.2 |
| 20260905121056 | 21 | 173 | 0.0 | 1.6 | 0.00 | 0.00 | 0.00 | 100 | 1015.2 |
| 20260905120600 | 21 | 173 | 0.0 | 0.0 | 0.00 | 0.00 | 0.00 | 100 | 1015.1 |
| 20260905120106 | 21 | 173 | 0.0 | 0.0 | 0.00 | 0.00 | 0.00 | 100 | 1015.1 |
| 20260905115559 | 21 | 173 | 0.0 | 0.0 | 0.00 | 0.00 | 0.00 | 100 | 1015.1 |